Year,Month,Day,Hour,Minute,Value (Times are PST for temperature in C)
2005,11,12,00,00,3.60
2005,11,12,00,01,3.60
2005,11,12,00,02,3.60
2005,11,12,00,03,3.50
2005,11,12,00,04,3.40
2005,11,12,00,05,3.40
2005,11,12,00,06,3.40
2005,11,12,00,07,3.50
2005,11,12,00,08,3.50
2005,11,12,00,09,3.50
2005,11,12,00,10,3.50
2005,11,12,00,11,3.60
2005,11,12,00,12,3.70
2005,11,12,00,13,3.80
2005,11,12,00,14,3.80
2005,11,12,00,15,3.90
2005,11,12,00,16,3.90
2005,11,12,00,17,4.10
2005,11,12,00,18,4.20
2005,11,12,00,19,4.20
2005,11,12,00,20,4.20
2005,11,12,00,21,4.20
2005,11,12,00,22,4.20
2005,11,12,00,23,4.20
2005,11,12,00,24,4.20
2005,11,12,00,25,4.10
2005,11,12,00,26,4.10
2005,11,12,00,27,4.00
2005,11,12,00,28,3.90
2005,11,12,00,29,3.80
2005,11,12,00,30,3.80
2005,11,12,00,31,3.80
2005,11,12,00,32,3.70
2005,11,12,00,33,3.80
2005,11,12,00,34,3.80
2005,11,12,00,35,3.80
2005,11,12,00,36,3.80
2005,11,12,00,37,3.80
2005,11,12,00,38,3.80
2005,11,12,00,39,3.80
2005,11,12,00,40,3.80
2005,11,12,00,41,3.90
2005,11,12,00,42,3.90
2005,11,12,00,43,3.90
2005,11,12,00,44,3.90
2005,11,12,00,45,3.90
2005,11,12,00,46,3.80
2005,11,12,00,47,3.80
2005,11,12,00,48,3.80
2005,11,12,00,49,3.80
2005,11,12,00,50,3.80
2005,11,12,00,51,3.80
2005,11,12,00,52,3.70
2005,11,12,00,53,3.60
2005,11,12,00,54,3.50
2005,11,12,00,55,3.40
2005,11,12,00,56,3.40
2005,11,12,00,57,3.40
2005,11,12,00,58,3.40
2005,11,12,00,59,3.20
2005,11,12,01,00,3.10
2005,11,12,01,01,3.10
2005,11,12,01,02,3.10
2005,11,12,01,03,3.10
2005,11,12,01,04,3.10
2005,11,12,01,05,3.20
2005,11,12,01,06,3.30
2005,11,12,01,07,3.30
2005,11,12,01,08,3.30
2005,11,12,01,09,3.40
2005,11,12,01,10,3.30
2005,11,12,01,11,3.20
2005,11,12,01,12,3.20
2005,11,12,01,13,3.10
2005,11,12,01,14,3.00
2005,11,12,01,15,2.90
2005,11,12,01,16,2.90
2005,11,12,01,17,2.80
2005,11,12,01,18,2.50
2005,11,12,01,19,2.40
2005,11,12,01,20,2.30
2005,11,12,01,21,2.30
2005,11,12,01,22,2.40
2005,11,12,01,23,2.40
2005,11,12,01,24,2.50
2005,11,12,01,25,2.40
2005,11,12,01,26,2.30
2005,11,12,01,27,2.30
2005,11,12,01,28,2.20
2005,11,12,01,29,2.10
2005,11,12,01,30,2.00
2005,11,12,01,31,1.90
2005,11,12,01,32,1.90
2005,11,12,01,33,1.80
2005,11,12,01,34,1.80
2005,11,12,01,35,1.80
2005,11,12,01,36,1.70
2005,11,12,01,37,1.70
2005,11,12,01,38,1.70
2005,11,12,01,39,1.70
2005,11,12,01,40,1.70
2005,11,12,01,41,1.80
2005,11,12,01,42,1.80
2005,11,12,01,43,1.80
2005,11,12,01,44,2.00
2005,11,12,01,45,2.00
2005,11,12,01,46,2.00
2005,11,12,01,47,2.00
2005,11,12,01,48,2.50
2005,11,12,01,49,2.50
2005,11,12,01,50,2.40
2005,11,12,01,51,2.30
2005,11,12,01,52,2.20
2005,11,12,01,53,2.20
2005,11,12,01,54,2.20
2005,11,12,01,55,2.10
2005,11,12,01,56,2.00
2005,11,12,01,57,2.00
2005,11,12,01,58,1.90
2005,11,12,01,59,1.90
2005,11,12,02,00,1.90
2005,11,12,02,01,1.80
2005,11,12,02,02,1.80
2005,11,12,02,03,1.90
2005,11,12,02,04,1.90
2005,11,12,02,05,2.00
2005,11,12,02,06,2.00
2005,11,12,02,07,2.00
2005,11,12,02,08,2.00
2005,11,12,02,09,1.90
2005,11,12,02,10,1.90
2005,11,12,02,11,1.90
2005,11,12,02,12,1.90
2005,11,12,02,13,2.00
2005,11,12,02,14,2.10
2005,11,12,02,15,2.10
2005,11,12,02,16,2.10
2005,11,12,02,17,2.10
2005,11,12,02,18,2.20
2005,11,12,02,19,2.20
2005,11,12,02,20,2.20
2005,11,12,02,21,2.20
2005,11,12,02,22,2.20
2005,11,12,02,23,2.20
2005,11,12,02,24,2.30
2005,11,12,02,25,2.30
2005,11,12,02,26,2.40
2005,11,12,02,27,2.60
2005,11,12,02,28,2.70
2005,11,12,02,29,2.80
2005,11,12,02,30,2.90
2005,11,12,02,31,2.90
2005,11,12,02,32,3.00
2005,11,12,02,33,3.10
2005,11,12,02,34,3.10
2005,11,12,02,35,3.10
2005,11,12,02,36,3.20
2005,11,12,02,37,3.20
2005,11,12,02,38,3.30
2005,11,12,02,39,3.30
2005,11,12,02,40,3.40
2005,11,12,02,41,3.40
2005,11,12,02,42,3.40
2005,11,12,02,43,3.40
2005,11,12,02,44,3.50
2005,11,12,02,45,3.50
2005,11,12,02,46,3.50
2005,11,12,02,47,3.60
2005,11,12,02,48,3.60
2005,11,12,02,49,3.60
2005,11,12,02,50,3.60
2005,11,12,02,51,3.50
2005,11,12,02,52,3.50
2005,11,12,02,53,3.50
2005,11,12,02,54,3.40
2005,11,12,02,55,3.30
2005,11,12,02,56,3.10
2005,11,12,02,57,3.00
2005,11,12,02,58,2.90
2005,11,12,02,59,2.90
2005,11,12,03,00,2.90
2005,11,12,03,01,2.90
2005,11,12,03,02,2.80
2005,11,12,03,03,2.70
2005,11,12,03,04,2.60
2005,11,12,03,05,2.50
2005,11,12,03,06,2.40
2005,11,12,03,07,2.30
2005,11,12,03,08,2.20
2005,11,12,03,09,2.20
2005,11,12,03,10,2.20
2005,11,12,03,11,2.20
2005,11,12,03,12,2.20
2005,11,12,03,13,2.20
2005,11,12,03,14,2.20
2005,11,12,03,15,2.20
2005,11,12,03,16,2.30
2005,11,12,03,17,2.30
2005,11,12,03,18,2.40
2005,11,12,03,19,2.40
2005,11,12,03,20,2.40
2005,11,12,03,21,2.40
2005,11,12,03,22,2.40
2005,11,12,03,23,2.30
2005,11,12,03,24,2.60
2005,11,12,03,25,2.90
2005,11,12,03,26,2.90
2005,11,12,03,27,2.80
2005,11,12,03,28,2.70
2005,11,12,03,29,2.70
2005,11,12,03,30,2.70
2005,11,12,03,31,2.60
2005,11,12,03,32,2.50
2005,11,12,03,33,2.50
2005,11,12,03,34,2.50
2005,11,12,03,35,2.50
2005,11,12,03,36,2.50
2005,11,12,03,37,2.50
2005,11,12,03,38,2.50
2005,11,12,03,39,2.40
2005,11,12,03,40,2.50
2005,11,12,03,41,2.40
2005,11,12,03,42,2.40
2005,11,12,03,43,2.40
2005,11,12,03,44,2.40
2005,11,12,03,45,2.40
2005,11,12,03,46,2.40
2005,11,12,03,47,2.40
2005,11,12,03,48,2.30
2005,11,12,03,49,2.30
2005,11,12,03,50,2.30
2005,11,12,03,51,2.20
2005,11,12,03,52,2.20
2005,11,12,03,53,2.20
2005,11,12,03,54,2.20
2005,11,12,03,55,2.20
2005,11,12,03,56,2.20
2005,11,12,03,57,2.10
2005,11,12,03,58,2.10
2005,11,12,03,59,2.10
2005,11,12,04,00,2.10
2005,11,12,04,01,2.10
2005,11,12,04,02,2.10
2005,11,12,04,03,2.10
2005,11,12,04,04,2.10
2005,11,12,04,05,2.10
2005,11,12,04,06,2.10
2005,11,12,04,07,2.10
2005,11,12,04,08,2.10
2005,11,12,04,09,2.10
2005,11,12,04,10,2.20
2005,11,12,04,11,2.20
2005,11,12,04,12,2.20
2005,11,12,04,13,2.20
2005,11,12,04,14,2.20
2005,11,12,04,15,2.10
2005,11,12,04,16,2.10
2005,11,12,04,17,2.00
2005,11,12,04,18,2.00
2005,11,12,04,19,2.00
2005,11,12,04,20,2.00
2005,11,12,04,21,2.00
2005,11,12,04,22,2.00
2005,11,12,04,23,2.00
2005,11,12,04,24,2.00
2005,11,12,04,25,2.10
2005,11,12,04,26,2.10
2005,11,12,04,27,2.20
2005,11,12,04,28,2.20
2005,11,12,04,29,2.20
2005,11,12,04,30,2.20
2005,11,12,04,31,2.20
2005,11,12,04,32,2.20
2005,11,12,04,33,2.30
2005,11,12,04,34,2.40
2005,11,12,04,35,2.40
2005,11,12,04,36,2.50
2005,11,12,04,37,2.70
2005,11,12,04,38,2.70
2005,11,12,04,39,2.70
2005,11,12,04,40,2.60
2005,11,12,04,41,2.60
2005,11,12,04,42,2.60
2005,11,12,04,43,2.50
2005,11,12,04,44,2.50
2005,11,12,04,45,2.50
2005,11,12,04,46,2.60
2005,11,12,04,47,2.60
2005,11,12,04,48,2.50
2005,11,12,04,49,2.50
2005,11,12,04,50,2.50
2005,11,12,04,51,2.50
2005,11,12,04,52,2.50
2005,11,12,04,53,2.50
2005,11,12,04,54,2.50
2005,11,12,04,55,2.50
2005,11,12,04,56,2.40
2005,11,12,04,57,2.40
2005,11,12,04,58,2.30
2005,11,12,04,59,2.30
2005,11,12,05,00,2.30
2005,11,12,05,01,2.30
2005,11,12,05,02,2.30
2005,11,12,05,03,2.30
2005,11,12,05,04,2.20
2005,11,12,05,05,2.20
2005,11,12,05,06,2.20
2005,11,12,05,07,2.20
2005,11,12,05,08,2.20
2005,11,12,05,09,2.10
2005,11,12,05,10,2.10
2005,11,12,05,11,2.10
2005,11,12,05,12,2.10
2005,11,12,05,13,2.00
2005,11,12,05,14,2.00
2005,11,12,05,15,2.00
2005,11,12,05,16,2.00
2005,11,12,05,17,2.00
2005,11,12,05,18,2.00
2005,11,12,05,19,2.00
2005,11,12,05,20,2.00
2005,11,12,05,21,2.10
2005,11,12,05,22,2.10
2005,11,12,05,23,2.20
2005,11,12,05,24,2.40
2005,11,12,05,25,2.50
2005,11,12,05,26,2.60
2005,11,12,05,27,2.70
2005,11,12,05,28,2.80
2005,11,12,05,29,2.90
2005,11,12,05,30,2.90
2005,11,12,05,31,2.80
2005,11,12,05,32,2.70
2005,11,12,05,33,2.70
2005,11,12,05,34,2.70
2005,11,12,05,35,2.70
2005,11,12,05,36,2.70
2005,11,12,05,37,2.70
2005,11,12,05,38,2.60
2005,11,12,05,39,2.60
2005,11,12,05,40,2.60
2005,11,12,05,41,2.60
2005,11,12,05,42,2.70
2005,11,12,05,43,2.70
2005,11,12,05,44,2.70
2005,11,12,05,45,2.70
2005,11,12,05,46,2.80
2005,11,12,05,47,2.90
2005,11,12,05,48,2.90
2005,11,12,05,49,2.90
2005,11,12,05,50,2.90
2005,11,12,05,51,2.90
2005,11,12,05,52,2.80
2005,11,12,05,53,2.80
2005,11,12,05,54,2.80
2005,11,12,05,55,2.70
2005,11,12,05,56,2.70
2005,11,12,05,57,2.70
2005,11,12,05,58,2.70
2005,11,12,05,59,2.60
2005,11,12,06,00,2.50
2005,11,12,06,01,2.50
2005,11,12,06,02,2.40
2005,11,12,06,03,2.30
2005,11,12,06,04,2.30
2005,11,12,06,05,2.30
2005,11,12,06,06,2.30
2005,11,12,06,07,2.30
2005,11,12,06,08,2.30
2005,11,12,06,09,2.30
2005,11,12,06,10,2.30
2005,11,12,06,11,2.40
2005,11,12,06,12,2.40
2005,11,12,06,13,2.40
2005,11,12,06,14,2.40
2005,11,12,06,15,2.30
2005,11,12,06,16,2.30
2005,11,12,06,17,2.30
2005,11,12,06,18,2.30
2005,11,12,06,19,2.40
2005,11,12,06,20,2.40
2005,11,12,06,21,2.40
2005,11,12,06,22,2.50
2005,11,12,06,23,2.50
2005,11,12,06,24,2.60
2005,11,12,06,25,2.60
2005,11,12,06,26,2.60
2005,11,12,06,27,2.50
2005,11,12,06,28,2.50
2005,11,12,06,29,2.50
2005,11,12,06,30,2.70
2005,11,12,06,31,2.80
2005,11,12,06,32,2.90
2005,11,12,06,33,3.10
2005,11,12,06,34,3.00
2005,11,12,06,35,2.90
2005,11,12,06,36,2.80
2005,11,12,06,37,2.70
2005,11,12,06,38,2.70
2005,11,12,06,39,2.70
2005,11,12,06,40,2.70
2005,11,12,06,41,2.70
2005,11,12,06,42,2.60
2005,11,12,06,43,2.50
2005,11,12,06,44,2.50
2005,11,12,06,45,2.50
2005,11,12,06,46,2.60
2005,11,12,06,47,2.60
2005,11,12,06,48,2.60
2005,11,12,06,49,2.70
2005,11,12,06,50,2.70
2005,11,12,06,51,2.70
2005,11,12,06,52,2.70
2005,11,12,06,53,2.80
2005,11,12,06,54,2.90
2005,11,12,06,55,2.90
2005,11,12,06,56,2.90
2005,11,12,06,57,2.90
2005,11,12,06,58,2.90
2005,11,12,06,59,2.90
2005,11,12,07,00,2.80
2005,11,12,07,01,2.80
2005,11,12,07,02,2.80
2005,11,12,07,03,2.70
2005,11,12,07,04,2.70
2005,11,12,07,05,2.70
2005,11,12,07,06,2.70
2005,11,12,07,07,2.70
2005,11,12,07,08,2.70
2005,11,12,07,09,2.70
2005,11,12,07,10,2.70
2005,11,12,07,11,2.80
2005,11,12,07,12,2.80
2005,11,12,07,13,2.90
2005,11,12,07,14,2.90
2005,11,12,07,15,2.90
2005,11,12,07,16,3.10
2005,11,12,07,17,3.10
2005,11,12,07,18,3.10
2005,11,12,07,19,3.10
2005,11,12,07,20,3.20
2005,11,12,07,21,3.30
2005,11,12,07,22,3.30
2005,11,12,07,23,3.30
2005,11,12,07,24,3.30
2005,11,12,07,25,3.30
2005,11,12,07,26,3.40
2005,11,12,07,27,3.40
2005,11,12,07,28,3.40
2005,11,12,07,29,3.40
2005,11,12,07,30,3.40
2005,11,12,07,31,3.30
2005,11,12,07,32,3.10
2005,11,12,07,33,3.00
2005,11,12,07,34,2.80
2005,11,12,07,35,2.80
2005,11,12,07,36,2.70
2005,11,12,07,37,2.70
2005,11,12,07,38,2.70
2005,11,12,07,39,2.70
2005,11,12,07,40,2.70
2005,11,12,07,41,2.70
2005,11,12,07,42,2.70
2005,11,12,07,43,2.80
2005,11,12,07,44,2.90
2005,11,12,07,45,3.00
2005,11,12,07,46,3.10
2005,11,12,07,47,3.10
2005,11,12,07,48,3.10
2005,11,12,07,49,3.20
2005,11,12,07,50,3.20
2005,11,12,07,51,3.30
2005,11,12,07,52,3.30
2005,11,12,07,53,3.50
2005,11,12,07,54,3.50
2005,11,12,07,55,3.60
2005,11,12,07,56,3.70
2005,11,12,07,57,3.80
2005,11,12,07,58,3.90
2005,11,12,07,59,3.90
2005,11,12,08,00,4.00
2005,11,12,08,01,4.00
2005,11,12,08,02,4.00
2005,11,12,08,03,4.10
2005,11,12,08,04,4.00
2005,11,12,08,05,4.00
2005,11,12,08,06,3.90
2005,11,12,08,07,3.90
2005,11,12,08,08,3.80
2005,11,12,08,09,3.70
2005,11,12,08,10,3.60
2005,11,12,08,11,3.50
2005,11,12,08,12,3.40
2005,11,12,08,13,3.30
2005,11,12,08,14,3.30
2005,11,12,08,15,3.30
2005,11,12,08,16,3.30
2005,11,12,08,17,3.30
2005,11,12,08,18,3.30
2005,11,12,08,19,3.30
2005,11,12,08,20,3.30
2005,11,12,08,21,3.30
2005,11,12,08,22,3.40
2005,11,12,08,23,3.50
2005,11,12,08,24,3.60
2005,11,12,08,25,3.80
2005,11,12,08,26,3.80
2005,11,12,08,27,3.90
2005,11,12,08,28,3.90
2005,11,12,08,29,4.00
2005,11,12,08,30,4.00
2005,11,12,08,31,4.00
2005,11,12,08,32,4.00
2005,11,12,08,33,4.00
2005,11,12,08,34,4.00
2005,11,12,08,35,4.10
2005,11,12,08,36,4.20
2005,11,12,08,37,4.20
2005,11,12,08,38,4.30
2005,11,12,08,39,4.40
2005,11,12,08,40,4.40
2005,11,12,08,41,4.50
2005,11,12,08,42,4.60
2005,11,12,08,43,4.60
2005,11,12,08,44,4.60
2005,11,12,08,45,4.70
2005,11,12,08,46,4.70
2005,11,12,08,47,4.70
2005,11,12,08,48,4.80
2005,11,12,08,49,4.80
2005,11,12,08,50,4.90
2005,11,12,08,51,4.90
2005,11,12,08,52,4.90
2005,11,12,08,53,5.00
2005,11,12,08,54,5.10
2005,11,12,08,55,5.10
2005,11,12,08,56,5.10
2005,11,12,08,57,5.10
2005,11,12,08,58,5.20
2005,11,12,08,59,5.20
2005,11,12,09,00,5.20
2005,11,12,09,01,5.20
2005,11,12,09,02,5.20
2005,11,12,09,03,5.30
2005,11,12,09,04,5.30
2005,11,12,09,05,5.30
2005,11,12,09,06,5.30
2005,11,12,09,07,5.30
2005,11,12,09,08,5.30
2005,11,12,09,09,5.30
2005,11,12,09,10,5.30
2005,11,12,09,11,5.40
2005,11,12,09,12,5.40
2005,11,12,09,13,5.40
2005,11,12,09,14,5.40
2005,11,12,09,15,5.40
2005,11,12,09,16,5.40
2005,11,12,09,17,5.40
2005,11,12,09,18,5.50
2005,11,12,09,19,5.50
2005,11,12,09,20,5.50
2005,11,12,09,21,5.50
2005,11,12,09,22,5.50
2005,11,12,09,23,5.50
2005,11,12,09,24,5.50
2005,11,12,09,25,5.60
2005,11,12,09,26,5.60
2005,11,12,09,27,5.60
2005,11,12,09,28,5.60
2005,11,12,09,29,5.60
2005,11,12,09,30,5.70
2005,11,12,09,31,5.70
2005,11,12,09,32,5.70
2005,11,12,09,33,5.70
2005,11,12,09,34,5.70
2005,11,12,09,35,5.70
2005,11,12,09,36,5.70
2005,11,12,09,37,5.70
2005,11,12,09,38,5.70
2005,11,12,09,39,5.70
2005,11,12,09,40,5.70
2005,11,12,09,41,5.70
2005,11,12,09,42,5.70
2005,11,12,09,43,5.70
2005,11,12,09,44,5.80
2005,11,12,09,45,5.80
2005,11,12,09,46,5.80
2005,11,12,09,47,5.80
2005,11,12,09,48,5.80
2005,11,12,09,49,5.80
2005,11,12,09,50,5.80
2005,11,12,09,51,5.80
2005,11,12,09,52,5.80
2005,11,12,09,53,5.80
2005,11,12,09,54,5.80
2005,11,12,09,55,5.90
2005,11,12,09,56,5.90
2005,11,12,09,57,5.90
2005,11,12,09,58,6.00
2005,11,12,09,59,6.00
2005,11,12,10,00,6.00
2005,11,12,10,01,6.10
2005,11,12,10,02,6.10
2005,11,12,10,03,6.20
2005,11,12,10,04,6.20
2005,11,12,10,05,6.20
2005,11,12,10,06,6.20
2005,11,12,10,07,6.20
2005,11,12,10,08,6.20
2005,11,12,10,09,6.30
2005,11,12,10,10,6.30
2005,11,12,10,11,6.30
2005,11,12,10,12,6.40
2005,11,12,10,13,6.40
2005,11,12,10,14,6.40
2005,11,12,10,15,6.40
2005,11,12,10,16,6.40
2005,11,12,10,17,6.40
2005,11,12,10,18,6.40
2005,11,12,10,19,6.40
2005,11,12,10,20,6.40
2005,11,12,10,21,6.30
2005,11,12,10,22,6.30
2005,11,12,10,23,6.30
2005,11,12,10,24,6.40
2005,11,12,10,25,6.30
2005,11,12,10,26,6.40
2005,11,12,10,27,6.40
2005,11,12,10,28,6.40
2005,11,12,10,29,6.40
2005,11,12,10,30,6.40
2005,11,12,10,31,6.40
2005,11,12,10,32,6.40
2005,11,12,10,33,6.40
2005,11,12,10,34,6.40
2005,11,12,10,35,6.40
2005,11,12,10,36,6.40
2005,11,12,10,37,6.40
2005,11,12,10,38,6.40
2005,11,12,10,39,6.40
2005,11,12,10,40,6.40
2005,11,12,10,41,6.40
2005,11,12,10,42,6.40
2005,11,12,10,43,6.40
2005,11,12,10,44,6.40
2005,11,12,10,45,6.40
2005,11,12,10,46,6.40
2005,11,12,13,18,7.70
2005,11,12,13,19,7.70
2005,11,12,13,20,7.70
2005,11,12,13,21,7.80
2005,11,12,13,22,7.80
2005,11,12,13,23,7.80
2005,11,12,13,24,7.80
2005,11,12,13,25,7.80
2005,11,12,13,26,7.80
2005,11,12,13,27,7.80
2005,11,12,13,28,7.80
2005,11,12,13,29,7.80
2005,11,12,13,30,7.80
2005,11,12,13,31,7.80
2005,11,12,13,32,7.80
2005,11,12,13,33,7.80
2005,11,12,13,34,7.80
2005,11,12,13,35,7.80
2005,11,12,13,36,7.80
2005,11,12,13,37,7.80
2005,11,12,13,38,7.80
2005,11,12,13,39,7.80
2005,11,12,13,40,7.80
2005,11,12,13,41,7.80
2005,11,12,13,42,7.80
2005,11,12,13,43,7.80
2005,11,12,13,44,7.80
2005,11,12,13,45,7.80
2005,11,12,13,46,7.80
2005,11,12,13,47,7.80
2005,11,12,13,48,7.80
2005,11,12,13,49,7.80
2005,11,12,13,50,7.80
2005,11,12,13,51,7.80
2005,11,12,13,52,7.80
2005,11,12,13,53,7.80
2005,11,12,13,54,7.80
2005,11,12,13,55,7.80
2005,11,12,13,56,7.80
2005,11,12,13,57,7.80
2005,11,12,13,58,7.80
2005,11,12,13,59,7.80
2005,11,12,14,00,7.80
2005,11,12,14,01,7.80
2005,11,12,14,02,7.80
2005,11,12,14,03,7.80
2005,11,12,14,04,7.80
2005,11,12,14,05,7.80
2005,11,12,14,06,7.90
2005,11,12,14,07,7.90
2005,11,12,14,08,7.90
2005,11,12,14,09,7.90
2005,11,12,14,10,7.90
2005,11,12,14,11,7.90
2005,11,12,14,12,7.90
2005,11,12,14,13,7.90
2005,11,12,14,14,7.90
2005,11,12,14,15,7.90
2005,11,12,14,16,7.90
2005,11,12,14,17,7.90
2005,11,12,14,18,7.90
2005,11,12,14,19,7.80
2005,11,12,14,20,7.80
2005,11,12,14,21,7.80
2005,11,12,14,22,7.80
2005,11,12,14,23,7.80
2005,11,12,14,24,7.80
2005,11,12,14,25,7.80
2005,11,12,14,26,7.80
2005,11,12,14,27,7.80
2005,11,12,14,28,7.80
2005,11,12,14,29,7.80
2005,11,12,14,30,7.80
2005,11,12,14,31,7.80
2005,11,12,14,32,7.80
2005,11,12,14,33,7.80
2005,11,12,14,34,7.80
2005,11,12,14,35,7.80
2005,11,12,14,36,7.80
2005,11,12,14,37,7.80
2005,11,12,14,38,7.80
2005,11,12,14,39,7.80
2005,11,12,14,40,7.80
2005,11,12,14,41,7.80
2005,11,12,14,42,7.80
2005,11,12,14,43,7.80
2005,11,12,14,44,7.80
2005,11,12,14,45,7.80
2005,11,12,14,46,7.80
2005,11,12,14,47,7.80
2005,11,12,14,48,7.80
2005,11,12,14,49,7.80
2005,11,12,14,50,7.80
2005,11,12,14,51,7.80
2005,11,12,14,52,7.80
2005,11,12,14,53,7.80
2005,11,12,14,54,7.80
2005,11,12,14,55,7.80
2005,11,12,14,56,7.80
2005,11,12,14,57,7.80
2005,11,12,14,58,7.80
2005,11,12,14,59,7.80
2005,11,12,15,00,7.80
2005,11,12,15,01,7.80
2005,11,12,15,02,7.80
2005,11,12,15,03,7.80
2005,11,12,15,04,7.80
2005,11,12,15,05,7.80
2005,11,12,15,06,7.80
2005,11,12,15,07,7.80
2005,11,12,15,08,7.80
2005,11,12,15,09,7.80
2005,11,12,15,10,7.80
2005,11,12,15,11,7.80
2005,11,12,15,12,7.80
2005,11,12,15,13,7.80
2005,11,12,15,14,7.80
2005,11,12,15,15,7.80
2005,11,12,15,16,7.80
2005,11,12,15,17,7.80
2005,11,12,15,18,7.80
2005,11,12,15,19,7.80
2005,11,12,15,20,7.80
2005,11,12,15,21,7.80
2005,11,12,15,22,7.80
2005,11,12,15,23,7.80
2005,11,12,15,24,7.80
2005,11,12,15,25,7.80
2005,11,12,15,26,7.80
2005,11,12,15,27,7.80
2005,11,12,15,28,7.80
2005,11,12,15,29,7.80
2005,11,12,15,30,7.80
2005,11,12,15,31,7.80
2005,11,12,15,32,7.80
2005,11,12,15,33,7.80
2005,11,12,15,34,7.80
2005,11,12,15,35,7.80
2005,11,12,15,36,7.80
2005,11,12,15,37,7.80
2005,11,12,15,38,7.80
2005,11,12,15,39,7.80
2005,11,12,15,40,7.80
2005,11,12,15,41,7.80
2005,11,12,15,42,7.80
2005,11,12,15,43,7.80
2005,11,12,15,44,7.80
2005,11,12,15,45,7.80
2005,11,12,15,46,7.80
2005,11,12,15,47,7.80
2005,11,12,15,48,7.80
2005,11,12,15,49,7.90
2005,11,12,15,50,7.90
2005,11,12,15,51,7.90
2005,11,12,15,52,7.90
2005,11,12,15,53,7.90
2005,11,12,15,54,7.90
2005,11,12,15,55,7.90
2005,11,12,15,56,7.90
2005,11,12,15,57,7.90
2005,11,12,15,58,7.90
2005,11,12,15,59,7.90
2005,11,12,16,00,7.90
2005,11,12,16,01,7.90
2005,11,12,16,02,7.90
2005,11,12,16,03,7.90
2005,11,12,16,04,7.90
2005,11,12,16,05,7.90
2005,11,12,16,06,7.90
2005,11,12,16,07,7.90
2005,11,12,16,08,7.90
2005,11,12,16,09,7.90
2005,11,12,16,10,7.90
2005,11,12,16,11,7.90
2005,11,12,16,12,7.90
2005,11,12,16,13,7.90
2005,11,12,16,14,7.90
2005,11,12,16,15,7.80
2005,11,12,16,16,7.90
2005,11,12,16,17,7.90
2005,11,12,16,18,7.90
2005,11,12,16,19,7.90
2005,11,12,16,20,7.90
2005,11,12,16,21,7.90
2005,11,12,16,22,7.90
2005,11,12,16,23,7.90
2005,11,12,16,24,7.90
2005,11,12,16,25,7.90
2005,11,12,16,26,7.90
2005,11,12,16,27,7.80
2005,11,12,16,28,7.80
2005,11,12,16,29,7.80
2005,11,12,16,30,7.80
2005,11,12,16,31,7.80
2005,11,12,16,32,7.80
2005,11,12,16,33,7.80
2005,11,12,16,34,7.80
2005,11,12,16,35,7.80
2005,11,12,16,36,7.80
2005,11,12,16,37,7.80
2005,11,12,16,38,7.80
2005,11,12,16,39,7.80
2005,11,12,16,40,7.80
2005,11,12,16,41,7.80
2005,11,12,16,42,7.80
2005,11,12,16,43,7.80
2005,11,12,16,44,7.80
2005,11,12,16,45,7.80
2005,11,12,16,46,7.80
2005,11,12,16,47,7.80
2005,11,12,16,48,7.80
2005,11,12,16,49,7.80
2005,11,12,16,50,7.80
2005,11,12,16,51,7.80
2005,11,12,16,52,7.80
2005,11,12,16,53,7.80
2005,11,12,16,54,7.80
2005,11,12,16,55,7.80
2005,11,12,16,56,7.80
2005,11,12,16,57,7.80
2005,11,12,16,58,7.80
2005,11,12,16,59,7.80
2005,11,12,17,00,7.80
2005,11,12,17,01,7.80
2005,11,12,17,02,7.80
2005,11,12,17,03,7.80
2005,11,12,17,04,7.80
2005,11,12,17,05,7.80
2005,11,12,17,06,7.80
2005,11,12,17,07,7.80
2005,11,12,17,08,7.80
2005,11,12,17,09,7.80
2005,11,12,17,10,7.80
2005,11,12,17,11,7.70
2005,11,12,17,12,7.70
2005,11,12,17,13,7.70
2005,11,12,17,14,7.70
2005,11,12,17,15,7.70
2005,11,12,17,16,7.70
2005,11,12,17,17,7.70
2005,11,12,17,18,7.70
2005,11,12,17,19,7.70
2005,11,12,17,20,7.80
2005,11,12,17,21,7.80
2005,11,12,17,22,7.80
2005,11,12,17,23,7.80
2005,11,12,17,24,7.80
2005,11,12,17,25,7.80
2005,11,12,17,26,7.80
2005,11,12,17,27,7.80
2005,11,12,17,28,7.80
2005,11,12,17,29,7.80
2005,11,12,17,30,7.80
2005,11,12,17,31,7.80
2005,11,12,17,32,7.80
2005,11,12,17,33,7.80
2005,11,12,17,34,7.80
2005,11,12,17,35,7.80
2005,11,12,17,36,7.80
2005,11,12,17,37,7.80
2005,11,12,17,38,7.80
2005,11,12,17,39,7.80
2005,11,12,17,40,7.80
2005,11,12,17,41,7.80
2005,11,12,17,42,7.80
2005,11,12,17,43,7.80
2005,11,12,17,44,7.80
2005,11,12,17,45,7.80
2005,11,12,17,46,7.80
2005,11,12,17,47,7.80
2005,11,12,17,48,7.80
2005,11,12,17,49,7.80
2005,11,12,17,50,7.80
2005,11,12,17,51,7.80
2005,11,12,17,52,7.80
2005,11,12,17,53,7.80
2005,11,12,17,54,7.80
2005,11,12,17,55,7.80
2005,11,12,17,56,7.80
2005,11,12,17,57,7.80
2005,11,12,17,58,7.80
2005,11,12,17,59,7.80
2005,11,12,18,00,7.80
2005,11,12,18,01,7.80
2005,11,12,18,02,7.70
2005,11,12,18,03,7.70
2005,11,12,18,04,7.80
2005,11,12,18,05,7.80
2005,11,12,18,06,7.70
2005,11,12,18,07,7.70
2005,11,12,18,08,7.70
2005,11,12,18,09,7.80
2005,11,12,18,10,7.80
2005,11,12,18,11,7.70
2005,11,12,18,12,7.70
2005,11,12,18,13,7.70
2005,11,12,18,14,7.80
2005,11,12,18,15,7.80
2005,11,12,18,16,7.80
2005,11,12,18,17,7.80
2005,11,12,18,18,7.80
2005,11,12,18,19,7.80
2005,11,12,18,20,7.80
2005,11,12,18,21,7.80
2005,11,12,18,22,7.80
2005,11,12,18,23,7.80
2005,11,12,18,24,7.80
2005,11,12,18,25,7.80
2005,11,12,18,26,7.80
2005,11,12,18,27,7.80
2005,11,12,18,28,7.80
2005,11,12,18,29,7.80
2005,11,12,18,30,7.80
2005,11,12,18,31,7.80
2005,11,12,18,32,7.80
2005,11,12,18,33,7.80
2005,11,12,18,34,7.80
2005,11,12,18,35,7.80
2005,11,12,18,36,7.80
2005,11,12,18,37,7.80
2005,11,12,18,38,7.80
2005,11,12,18,39,7.80
2005,11,12,18,40,7.80
2005,11,12,18,41,7.80
2005,11,12,18,42,7.80
2005,11,12,18,43,7.80
2005,11,12,18,44,7.80
2005,11,12,18,45,7.80
2005,11,12,18,46,7.80
2005,11,12,18,47,7.80
2005,11,12,18,48,7.80
2005,11,12,18,49,7.80
2005,11,12,18,50,7.80
2005,11,12,18,51,7.80
2005,11,12,18,52,7.80
2005,11,12,18,53,7.80
2005,11,12,18,54,7.80
2005,11,12,18,55,7.80
2005,11,12,18,56,7.80
2005,11,12,18,57,7.80
2005,11,12,18,58,7.80
2005,11,12,18,59,7.80
2005,11,12,19,00,7.80
2005,11,12,19,01,7.80
2005,11,12,19,02,7.80
2005,11,12,19,03,7.80
2005,11,12,19,04,7.80
2005,11,12,19,05,7.80
2005,11,12,19,06,7.80
2005,11,12,19,07,7.80
2005,11,12,19,08,7.80
2005,11,12,19,09,7.80
2005,11,12,19,10,7.80
2005,11,12,19,11,7.80
2005,11,12,19,12,7.80
2005,11,12,19,13,7.80
2005,11,12,19,14,7.80
2005,11,12,19,15,7.80
2005,11,12,19,16,7.80
2005,11,12,19,17,7.90
2005,11,12,19,18,7.90
2005,11,12,19,19,7.90
2005,11,12,19,20,7.90
2005,11,12,19,21,7.80
2005,11,12,19,22,7.90
2005,11,12,19,23,7.90
2005,11,12,19,24,7.90
2005,11,12,19,25,7.90
2005,11,12,19,26,7.90
2005,11,12,19,27,7.90
2005,11,12,19,28,7.90
2005,11,12,19,29,7.90
2005,11,12,19,30,7.90
2005,11,12,19,31,7.90
2005,11,12,19,32,7.90
2005,11,12,19,33,7.80
2005,11,12,19,34,7.80
2005,11,12,19,35,7.80
2005,11,12,19,36,7.90
2005,11,12,19,37,7.90
2005,11,12,19,38,7.80
2005,11,12,19,39,7.80
2005,11,12,19,40,7.80
2005,11,12,19,41,7.80
2005,11,12,19,42,7.80
2005,11,12,19,43,7.80
2005,11,12,19,44,7.80
2005,11,12,19,45,7.80
2005,11,12,19,46,7.80
2005,11,12,19,47,7.80
2005,11,12,19,48,7.80
2005,11,12,19,49,7.80
2005,11,12,19,50,7.80
2005,11,12,19,51,7.80
2005,11,12,19,52,7.80
2005,11,12,19,53,7.80
2005,11,12,19,54,7.80
2005,11,12,19,55,7.80
2005,11,12,19,56,7.80
2005,11,12,19,57,7.70
2005,11,12,19,58,7.70
2005,11,12,19,59,7.70
2005,11,12,20,00,7.70
2005,11,12,20,01,7.70
2005,11,12,20,02,7.70
2005,11,12,20,03,7.70
2005,11,12,20,04,7.70
2005,11,12,20,05,7.70
2005,11,12,20,06,7.70
2005,11,12,20,07,7.70
2005,11,12,20,08,7.70
2005,11,12,20,09,7.70
2005,11,12,20,10,7.70
2005,11,12,20,11,7.70
2005,11,12,20,12,7.70
2005,11,12,20,13,7.70
2005,11,12,20,14,7.70
2005,11,12,20,15,7.70
2005,11,12,20,16,7.70
2005,11,12,20,17,7.60
2005,11,12,20,18,7.60
2005,11,12,20,19,7.60
2005,11,12,20,20,7.60
2005,11,12,20,21,7.60
2005,11,12,20,22,7.60
2005,11,12,20,23,7.60
2005,11,12,20,24,7.60
2005,11,12,20,25,7.60
2005,11,12,20,26,7.60
2005,11,12,20,27,7.60
2005,11,12,20,28,7.60
2005,11,12,20,29,7.60
2005,11,12,20,30,7.50
2005,11,12,20,31,7.50
2005,11,12,20,32,7.50
2005,11,12,20,33,7.50
2005,11,12,20,34,7.50
2005,11,12,20,35,7.50
2005,11,12,20,36,7.50
2005,11,12,20,37,7.50